Temperature
21 21 20 20 20 19 19 19 19 18 18 18 18 17 17 17 17 17 17 16 16 16 16 16 16 16 16 16 15 15 15 14 14 14 13 13 13 12 12 12 12 12 12
21 21 21 20 20 20 19 19 19 18 18 18 18 18 17 17 17 17 17 16 16 16 16 16 16 16 16 15 15 15 15 14 14 14 13 13 12 12 12 12 12 12 12
21 21 21 20 20 20 20 19 19 18 18 18 18 18 17 17 17 17 17 16 16 16 16 16 16 15 15 15 15 15 14 14 14 14 13 13 12 12 12 12 12 12 12
21 21 21 21 20 20 20 19 19 18 18 18 18 18 17 17 17 17 16 16 16 16 16 15 15 15 15 15 15 15 14 14 14 13 13 13 12 12 12 12 12 12 12
21 21 21 21 20 20 20 19 19 18 18 18 18 18 17 17 17 16 16 16 16 16 16 15 15 15 15 15 15 14 14 14 14 13 13 13 12 12 12 12 12 11 11
21 21 21 20 20 20 19 19 19 19 18 18 18 17 17 17 16 16 16 16 16 16 15 15 15 15 15 14 14 14 14 14 14 13 13 13 13 12 12 12 11 11 11
21 21 21 20 20 20 19 19 19 19 18 18 18 17 17 17 16 16 16 16 16 15 15 15 15 15 14 14 14 14 14 13 13 13 13 13 12 12 12 12 11 11 11
21 20 20 20 20 20 19 19 19 18 18 18 17 17 17 16 16 16 16 16 16 15 15 15 15 14 14 14 14 14 13 13 13 13 13 12 12 12 12 12 11 11 11
20 20 20 20 19 19 19 18 18 18 18 17 17 17 17 16 16 16 16 16 15 15 15 14 14 14 14 14 14 13 13 13 13 12 12 12 12 12 11 11 11 11 11
20 20 19 19 19 19 19 18 18 18 18 17 17 16 16 16 16 16 16 16 15 15 14 14 14 14 14 13 13 13 13 13 12 12 12 12 12 11 11 11 11 11 11
20 20 19 19 19 19 18 18 18 18 17 17 16 16 16 16 16 15 15 15 15 15 14 14 14 14 13 13 13 13 13 12 12 12 12 12 12 11 11 11 11 11 10
19 19 19 19 18 18 18 18 17 17 17 16 16 16 15 15 15 15 15 14 14 14 14 14 14 13 13 13 13 13 12 12 12 12 12 11 11 11 11 11 11 10 10
19 18 18 18 17 17 17 17 17 16 16 16 15 15 15 15 15 14 14 14 14 14 13 13 13 13 13 13 13 12 12 12 12 11 11 11 11 11 11 11 11 10 10
18 18 17 17 17 17 16 16 16 16 15 15 15 15 15 15 14 14 14 14 14 13 13 13 13 12 12 12 12 12 12 12 12 11 11 11 11 11 10 10 10 10 10
18 17 17 17 17 16 16 16 16 15 15 15 15 15 15 15 14 14 14 14 13 13 13 12 12 12 12 12 12 12 12 11 11 11 11 11 11 10 10 10 10 10 10
17 17 16 16 16 16 15 15 15 15 15 15 14 14 14 14 14 14 13 13 13 12 12 12 12 12 12 12 11 11 11 11 11 11 11 10 10 10 10 10 10 10 9
16 16 16 16 15 15 15 15 15 15 15 14 14 14 14 14 14 13 13 13 12 12 12 12 12 12 12 11 11 11 11 11 11 11 10 10 10 10 10 10 9 9 9
16 15 15 15 15 15 15 15 15 14 14 14 14 14 13 13 13 13 13 12 12 12 12 12 12 12 11 11 11 11 11 11 11 10 10 10 10 9 9 9 9 9 9
15 15 15 14 14 14 14 14 14 14 14 14 14 14 13 13 13 13 13 12 12 12 12 12 12 11 11 11 11 11 11 10 10 10 10 10 10 9 9 9 9 9 9
15 14 14 14 14 14 14 14 14 14 14 13 13 13 13 13 13 13 12 12 12 12 12 12 11 11 11 11 11 11 10 10 10 10 10 10 9 9 9 9 9 9 9
14 14 14 14 14 14 13 13 13 13 13 13 13 13 13 13 12 12 12 12 12 12 12 11 11 11 11 11 11 10 10 10 10 10 10 10 9 9 9 9 9 9 8
14 14 13 13 13 13 13 13 13 13 13 13 13 12 12 12 12 12 12 12 12 12 11 11 11 11 11 11 11 10 10 10 10 10 10 9 9 9 9 9 9 8 8
13 13 13 13 13 13 13 13 13 12 12 12 12 12 12 12 12 12 12 11 11 11 11 11 11 11 11 11 10 10 10 10 10 10 9 9 9 9 9 9 8 8 8
13 13 13 13 12 12 12 12 12 12 12 12 12 12 11 11 11 11 11 11 11 11 11 11 11 11 11 11 10 10 10 10 10 9 9 9 9 9 9 8 8 8 8
13 13 13 12 12 12 12 12 12 12 12 12 11 11 11 11 11 11 11 11 11 11 11 11 11 11 11 10 10 10 10 10 9 9 9 9 9 9 8 8 8 8 7
12 12 12 12 12 12 12 12 11 11 11 11 11 11 11 11 11 11 11 11 11 11 11 11 11 11 10 10 10 10 10 9 9 9 9 9 8 8 8 8 8 7 7
Wind_Speed
8 7 6 5 5 5 4 4 3 3 3 3 2 2 2 1 1 2 2 2 2 1 1 1 1 2 2 2 3 3 3 3 3 1 1 1 2 3 3 4 5 6 6
8 7 6 5 5 5 5 4 4 3 3 3 3 2 2 2 2 2 2 2 2 2 1 2 1 1 2 2 2 3 3 3 4 4 2 2 2 2 2 2 3 4 4
8 8 7 6 6 5 5 4 4 4 3 3 3 3 2 3 3 3 3 2 2 2 2 2 1 2 2 2 2 3 3 3 3 4 3 1 1 2 2 2 2 2 3
9 8 8 8 7 6 5 5 4 4 4 4 3 3 3 3 3 3 3 3 2 2 2 2 2 2 2 3 3 3 4 4 4 5 3 2 2 2 2 1 1 1 1
9 9 8 7 6 6 5 5 5 4 4 4 3 3 3 3 3 3 3 3 3 2 2 2 1 2 3 3 3 4 5 4 4 4 3 2 2 2 2 2 2 1 0
9 8 7 6 6 6 5 5 5 4 4 3 3 3 3 2 4 6 5 3 3 2 2 1 1 2 2 3 4 6 6 6 6 4 3 4 4 3 3 3 3 2 1
7 7 7 6 6 5 6 5 5 4 4 3 3 3 2 2 5 6 6 4 3 2 2 1 1 1 2 2 4 4 3 4 6 5 5 5 5 5 5 4 4 3 2
7 6 6 6 6 5 5 6 5 4 4 4 3 3 3 2 4 5 6 4 3 2 2 2 2 1 1 3 3 3 2 1 3 3 4 5 4 5 5 5 4 3 1
7 7 7 7 6 6 6 5 5 5 4 4 4 4 4 3 5 6 6 4 3 2 1 1 2 2 2 4 4 3 1 0 1 2 3 3 3 5 6 4 4 3 2
7 6 6 7 7 7 7 6 4 4 4 4 4 3 4 3 5 7 7 4 3 2 1 1 1 2 2 4 4 3 3 2 1 1 1 2 2 4 6 5 5 4 2
6 6 6 6 7 7 6 5 5 5 5 4 3 3 3 3 4 6 7 4 4 3 2 2 2 3 3 4 4 4 4 3 2 2 1 1 1 1 3 4 5 4 3
5 6 6 6 6 5 6 5 5 5 5 4 3 2 1 2 3 5 7 6 5 4 3 3 3 4 4 4 4 4 5 4 3 2 2 1 2 2 2 3 4 5 4
5 5 5 5 5 5 6 6 5 5 4 4 3 3 2 2 3 5 6 7 7 4 3 4 4 4 3 3 3 3 4 3 3 3 3 3 3 3 2 2 2 2 2
6 5 5 5 4 4 4 5 5 5 5 4 4 4 3 3 3 3 3 4 5 4 2 2 2 2 2 2 2 2 2 3 3 4 3 3 2 2 2 2 2 2 2
6 5 5 5 5 4 3 3 4 5 6 6 5 5 5 5 6 7 6 5 5 4 3 1 1 1 1 1 1 2 2 2 3 3 3 2 2 2 2 2 2 2 3
6 5 4 4 4 4 4 2 1 2 5 7 7 6 5 6 6 8 8 8 7 8 5 3 3 3 4 4 4 3 3 4 4 4 3 3 3 3 3 2 2 3 5
6 6 5 4 4 4 4 4 3 1 2 4 5 6 5 5 6 7 8 7 7 9 4 4 5 5 5 5 5 4 5 4 4 4 4 4 4 4 4 4 4 4 5
5 5 5 4 4 4 4 4 4 4 3 2 3 5 6 6 6 7 7 6 3 4 4 5 6 5 5 5 5 5 5 4 3 4 5 5 5 5 5 5 5 6 6
5 4 4 4 4 4 4 4 3 4 3 3 1 2 3 3 3 4 7 4 5 5 6 6 6 6 5 5 5 5 5 5 5 5 5 5 5 5 6 6 6 7 7
4 5 5 4 4 4 4 4 4 4 4 4 4 4 2 2 2 3 4 5 5 6 6 7 6 6 6 6 5 5 5 5 5 5 6 6 6 6 7 7 6 6 6
3 4 5 4 4 4 4 4 4 4 4 4 5 4 6 4 5 5 5 6 6 7 7 7 7 7 7 6 6 6 7 6 6 6 6 6 6 6 6 6 6 6 6
3 4 4 4 4 3 3 4 4 4 5 5 4 4 6 4 4 5 5 6 7 7 7 7 7 6 7 7 7 7 7 7 7 6 7 6 6 6 6 6 6 6 5
3 3 4 3 4 4 3 3 4 4 4 4 4 3 3 4 5 5 6 6 6 6 6 6 6 6 7 8 8 8 8 8 7 7 7 7 6 6 6 6 7 7 6
3 3 3 3 3 3 4 4 4 4 4 4 4 4 4 5 5 6 6 6 6 6 6 6 7 8 9 7 7 8 9 9 9 8 9 8 7 6 6 6 6 7 7
2 3 3 3 3 4 4 4 4 4 4 4 4 4 4 5 5 6 6 6 6 6 6 6 6 7 9 9 8 8 7 8 8 7 7 6 7 7 6 6 6 6 6
2 2 2 2 3 3 4 4 4 4 4 4 5 5 5 5 5 5 5 5 5 5 5 6 7 8 8 8 8 8 8 8 8 8 7 5 5 5 5 5 5 5 5
Wind_Direction
179 177 171 170 172 173 174 181 178 170 163 160 157 144 138 126 117 122 127 119 113 97 90 114 121 130 136 145 146 147 146 143 152 153 132 132 123 113 92 85 79 76 74
176 169 170 169 169 174 181 182 172 170 168 159 146 139 138 126 121 127 125 116 119 115 107 105 102 115 119 136 146 152 155 150 151 156 149 142 134 137 113 96 87 83 81
167 164 164 169 180 183 183 176 170 169 162 154 148 150 149 139 130 130 128 120 118 118 118 118 116 125 131 141 144 150 150 141 137 149 154 144 135 137 116 93 83 69 91
166 168 175 183 184 182 178 173 172 168 164 167 167 165 159 147 139 136 127 119 109 101 103 114 123 140 158 159 150 148 139 131 130 138 146 148 144 142 142 142 114 55 73
167 174 184 181 172 170 173 172 164 164 172 169 161 157 161 158 157 150 145 134 123 106 90 88 104 125 142 158 156 154 145 140 142 147 156 157 167 171 182 180 177 162 17
168 177 175 170 169 173 177 170 161 163 160 154 162 165 172 185 162 154 150 142 135 129 115 86 86 87 109 121 140 154 156 159 165 166 178 191 199 196 182 179 171 170 228
166 170 165 165 167 173 172 164 167 168 161 155 160 151 159 186 168 158 151 147 143 143 138 122 101 76 96 116 126 132 147 163 173 175 188 205 205 200 185 185 188 195 214
164 167 164 163 167 163 163 167 170 164 165 168 166 158 149 167 156 146 142 139 137 145 155 159 140 115 118 129 132 129 137 171 195 195 202 208 206 196 194 191 184 176 183
171 175 173 169 167 167 173 177 175 164 166 167 158 164 164 173 162 157 148 139 138 144 143 142 151 151 140 136 136 140 141 241 171 171 186 186 178 176 170 153 158 169 209
183 178 173 171 170 175 183 182 171 160 167 160 157 169 172 179 174 164 156 149 153 164 153 177 169 171 163 154 155 161 183 214 168 138 121 128 151 162 172 184 184 187 199
170 161 169 177 178 175 174 173 159 155 155 160 168 179 182 194 190 179 172 164 172 174 191 214 225 199 190 186 181 190 204 189 178 170 156 141 137 169 185 193 194 194 203
154 154 165 171 172 168 164 165 160 157 159 166 170 186 199 202 199 197 192 190 179 178 202 216 221 202 199 197 200 203 187 168 165 168 176 201 219 225 226 219 213 210 217
149 156 159 158 162 163 166 166 159 157 165 175 179 196 216 215 213 205 202 201 197 196 209 209 212 208 207 210 213 201 184 176 175 192 211 225 231 231 223 218 228 232 245
153 157 154 150 149 150 158 162 165 173 177 183 192 206 215 220 222 205 202 203 198 201 203 199 204 214 205 215 218 210 199 199 199 214 225 232 230 221 219 219 226 220 238
154 156 154 152 152 155 165 172 184 196 192 195 209 207 205 222 225 203 195 201 194 189 165 150 159 193 230 249 239 226 211 202 212 221 220 223 226 231 236 223 214 211 224
159 163 162 161 160 163 167 164 171 205 205 206 205 199 216 222 210 200 205 204 187 167 158 196 216 219 224 232 236 238 229 225 225 222 221 221 224 230 236 230 221 223 232
170 172 167 165 168 173 178 183 198 240 214 216 219 214 219 221 215 209 205 193 178 163 180 212 224 227 229 230 231 232 234 231 223 221 224 227 226 229 232 234 230 232 239
167 172 170 172 177 182 190 194 195 200 221 249 242 226 223 219 215 205 188 159 169 187 213 222 228 230 230 231 232 234 236 232 227 230 233 233 228 228 232 236 234 236 240
166 172 174 176 180 184 191 193 198 206 217 228 249 251 227 213 198 185 168 185 201 211 221 229 233 233 232 233 233 230 229 230 230 229 234 233 230 230 235 238 240 238 237
172 174 173 176 182 184 189 194 199 210 218 226 231 230 193 167 193 197 199 210 215 222 226 230 232 232 230 231 231 229 231 232 231 231 235 235 233 230 234 237 239 240 239
175 175 174 179 186 189 193 200 202 210 219 228 238 228 196 205 217 219 217 221 225 228 229 230 232 232 232 231 230 230 229 233 233 233 234 235 232 232 234 237 239 240 243
178 180 185 193 195 196 201 207 205 212 220 229 241 233 205 215 228 231 233 235 235 235 232 229 232 233 231 228 227 227 229 232 234 234 233 233 234 234 235 235 236 237 238
176 183 188 194 200 196 203 215 215 219 226 232 236 236 224 229 236 238 240 242 241 240 236 230 233 237 236 231 227 224 226 230 230 227 226 229 231 230 231 232 232 235 235
177 184 191 198 205 200 211 221 225 227 231 235 236 237 237 237 241 242 242 244 244 244 239 233 233 237 237 234 231 228 230 232 228 224 223 226 229 230 228 231 234 238 239
182 188 195 203 211 213 214 223 231 232 233 237 241 243 246 246 248 249 249 247 245 243 241 237 236 236 236 234 233 234 236 231 228 225 217 219 226 228 228 230 234 240 242
194 202 210 217 223 225 220 223 233 239 241 245 246 245 246 249 253 254 254 250 247 246 246 243 239 237 237 233 234 231 227 224 219 213 207 209 217 223 226 229 235 235 240
Height
1530 1532 1535 1536 1538 1539 1540 1541 1542 1543 1544 1544 1544 1545 1544 1544 1544 1544 1543 1543 1543 1543 1542 1542 1542 1542 1542 1542 1542 1543 1544 1544 1544 1545 1546 1547 1547 1547 1547 1547 1548 1547 1547
1528 1531 1533 1535 1536 1538 1539 1539 1541 1542 1543 1543 1543 1543 1543 1543 1543 1543 1542 1542 1542 1541 1541 1541 1541 1541 1541 1541 1541 1542 1542 1543 1543 1543 1544 1545 1546 1547 1547 1547 1547 1547 1547
1526 1529 1531 1533 1534 1536 1537 1538 1539 1540 1541 1541 1542 1542 1542 1541 1541 1541 1541 1541 1540 1540 1540 1540 1540 1540 1540 1540 1540 1541 1541 1541 1542 1542 1543 1544 1545 1546 1546 1546 1547 1547 1547
1523 1526 1528 1530 1532 1534 1535 1536 1537 1538 1539 1539 1540 1540 1540 1540 1540 1540 1540 1540 1539 1539 1539 1539 1539 1539 1539 1539 1539 1540 1540 1540 1541 1541 1542 1543 1544 1545 1545 1546 1546 1546 1546
1520 1523 1525 1527 1529 1531 1532 1533 1535 1535 1536 1537 1537 1537 1538 1538 1538 1538 1539 1539 1538 1538 1538 1538 1538 1538 1538 1538 1538 1539 1539 1540 1540 1540 1541 1542 1542 1543 1544 1544 1545 1545 1545
1517 1520 1522 1524 1526 1528 1529 1531 1532 1533 1534 1534 1535 1535 1535 1535 1535 1536 1537 1537 1537 1537 1537 1537 1537 1537 1537 1537 1538 1538 1539 1539 1539 1539 1540 1540 1540 1541 1542 1543 1543 1544 1544
1514 1517 1519 1522 1524 1525 1527 1528 1529 1530 1531 1532 1533 1533 1533 1533 1533 1534 1535 1536 1536 1536 1536 1536 1536 1536 1536 1537 1537 1537 1537 1538 1538 1539 1538 1539 1539 1540 1540 1541 1541 1542 1542
1511 1514 1516 1518 1521 1522 1524 1525 1526 1527 1529 1529 1529 1530 1531 1531 1532 1532 1533 1533 1534 1534 1535 1535 1535 1535 1535 1536 1536 1536 1536 1536 1537 1537 1537 1537 1538 1538 1538 1539 1539 1540 1540
1508 1511 1513 1516 1518 1520 1521 1522 1523 1524 1525 1526 1527 1528 1529 1529 1530 1531 1531 1531 1532 1533 1533 1534 1534 1534 1534 1534 1534 1534 1535 1535 1535 1536 1536 1536 1536 1536 1537 1537 1537 1537 1537
1505 1508 1510 1513 1514 1516 1518 1520 1521 1522 1523 1525 1525 1526 1526 1527 1527 1528 1529 1529 1530 1531 1531 1532 1532 1532 1532 1532 1533 1533 1533 1533 1533 1534 1534 1534 1535 1535 1535 1535 1535 1536 1536
1502 1505 1507 1510 1511 1512 1514 1516 1517 1518 1520 1521 1523 1523 1524 1525 1526 1526 1527 1527 1528 1529 1529 1530 1530 1530 1531 1531 1531 1531 1531 1532 1532 1532 1532 1532 1533 1533 1533 1533 1533 1534 1534
1500 1501 1504 1506 1507 1509 1510 1512 1514 1515 1516 1517 1519 1520 1521 1522 1523 1524 1525 1525 1526 1527 1527 1528 1528 1529 1529 1529 1529 1529 1529 1530 1530 1530 1530 1530 1530 1530 1531 1531 1531 1531 1531
1498 1499 1501 1503 1504 1506 1507 1508 1510 1512 1513 1515 1516 1517 1518 1519 1520 1521 1522 1522 1523 1524 1524 1525 1526 1526 1526 1526 1526 1527 1527 1527 1527 1527 1527 1527 1528 1528 1528 1528 1528 1528 1528
1495 1497 1499 1500 1502 1504 1505 1506 1507 1509 1510 1511 1512 1513 1514 1516 1516 1517 1518 1519 1519 1520 1521 1522 1523 1523 1523 1523 1524 1524 1524 1524 1524 1524 1524 1524 1524 1525 1525 1525 1525 1525 1525
1494 1495 1497 1498 1499 1501 1502 1503 1505 1506 1507 1508 1509 1510 1511 1512 1513 1514 1514 1515 1515 1516 1517 1518 1518 1519 1519 1520 1520 1520 1520 1520 1520 1520 1520 1521 1521 1521 1521 1522 1522 1522 1522
1491 1493 1494 1495 1497 1498 1499 1501 1502 1504 1504 1505 1506 1507 1508 1509 1510 1511 1511 1512 1512 1512 1513 1513 1514 1514 1514 1515 1516 1516 1516 1516 1516 1517 1517 1517 1517 1517 1518 1518 1518 1518 1518
1489 1490 1491 1492 1493 1495 1496 1497 1498 1500 1501 1502 1502 1503 1504 1505 1506 1507 1507 1508 1508 1508 1508 1508 1509 1509 1510 1511 1511 1512 1512 1512 1512 1512 1513 1513 1513 1513 1513 1513 1513 1513 1513
1486 1488 1489 1490 1491 1492 1493 1494 1495 1496 1497 1498 1499 1500 1501 1502 1502 1502 1503 1503 1502 1503 1503 1504 1504 1505 1505 1506 1506 1507 1507 1508 1508 1508 1508 1508 1508 1508 1508 1508 1508 1509 1508
1483 1485 1486 1488 1489 1489 1490 1491 1492 1493 1494 1494 1495 1496 1497 1497 1497 1498 1498 1497 1497 1498 1498 1499 1500 1500 1500 1501 1502 1502 1502 1503 1503 1503 1503 1503 1503 1504 1503 1504 1504 1504 1504
1481 1482 1484 1485 1486 1487 1488 1488 1489 1490 1491 1491 1492 1492 1493 1493 1493 1493 1493 1493 1493 1494 1494 1495 1495 1495 1495 1496 1496 1497 1497 1497 1498 1498 1498 1498 1498 1498 1498 1499 1499 1499 1499
1478 1479 1480 1482 1482 1483 1484 1485 1485 1486 1487 1487 1488 1488 1489 1489 1489 1489 1489 1489 1489 1490 1490 1490 1490 1490 1490 1490 1491 1491 1491 1492 1492 1492 1492 1492 1493 1493 1493 1493 1493 1493 1493
1475 1476 1477 1478 1479 1480 1481 1481 1482 1482 1483 1484 1484 1484 1485 1485 1485 1485 1485 1485 1485 1485 1485 1485 1485 1485 1485 1485 1485 1485 1485 1486 1486 1486 1486 1487 1487 1487 1487 1487 1488 1488 1488
1472 1473 1475 1475 1476 1477 1477 1478 1479 1479 1479 1480 1480 1480 1480 1480 1480 1480 1481 1481 1481 1481 1480 1480 1480 1480 1480 1480 1480 1480 1480 1480 1480 1481 1481 1481 1481 1481 1481 1481 1482 1482 1482
1470 1471 1471 1472 1473 1472 1474 1475 1475 1475 1475 1475 1475 1475 1475 1476 1476 1476 1476 1476 1476 1476 1475 1475 1475 1475 1475 1475 1474 1474 1475 1475 1475 1475 1475 1475 1475 1475 1476 1476 1476 1476 1477
1467 1468 1468 1468 1469 1470 1470 1471 1471 1471 1471 1471 1471 1471 1471 1471 1471 1471 1471 1471 1471 1471 1470 1470 1470 1470 1470 1469 1469 1469 1469 1470 1470 1470 1470 1470 1470 1470 1470 1470 1471 1472 1473
1465 1465 1465 1466 1466 1466 1466 1467 1467 1467 1467 1467 1467 1467 1467 1466 1466 1466 1466 1466 1466 1465 1465 1465 1465 1465 1465 1464 1464 1464 1464 1464 1465 1465 1465 1465 1465 1465 1466 1466 1466 1467 1468